sat.trackr.live / text

‹ back to catalog

STARLINK-31911

NORAD 60587 · 2024-150E

PAYLOAD ACTIVE UNKNOWN

§ Identity

Operator
Country
US
Launch date
2024-08-20
Launch site
AFETR
Launch vehicle
Mass (kg)
RCS (m²)

Purposes: comms

External: N2YO · Heavens-Above · Gunter

§ Orbital elements

Epoch: 2026-05-25T04:28:26.796000Z

Period
93.85 min
Inclination
53.1626°
Eccentricity
0.0001260
Mean motion
15.34372453 rev/d
Perigee alt
461.9 km
Apogee alt
463.6 km
Semi-major
6,840.9 km
B*
-1.5470e-5
RAAN
310.9860°
Arg perigee
67.7834°
Mean anomaly
292.3303°
Rev number
9,968

§ Raw data

STARLINK-319111 60587U 24150E   26145.18642125 -.00000898  00000+0 -15470-4 0  99922 60587  53.1626 310.9860 0001260  67.7834 292.3303 15.34372453 99683

JSON: /api/v1/satellites/60587 · /tle

For live sub-satellite position, see the globe view (requires WebGL).

§ Visibility from observer

Set your observer location to see the next 7 days of passes ≥ 10°. The values pass through the URL so the page stays shareable.

No JS? Fill the form by hand. The geolocation button needs JavaScript.